This demonstration page uses our WeatherBlox Daily Observations layout. Learn more.

Left ArrowRight Arrow

39.92423, -83.80882

Hourly Observations for March 29, 2019

Temp ( °F °C ) Dew Point ( °F °C ) Humidity (%) Winds ( mph kmh ) Pressure ( in mb ) Visibility ( mi km ) Precip ( " mm )
12:56 am 00:56 Cloudy with Light Rain 56 13.3 48 8.9 75 75 W 25 41 30.12 1020 10 16.0934 0 0.0254
1:56 am 01:56 Cloudy with Light Rain 52 11.1 50 10 93 93 NW 8 13 30.11 1020 10 16.0934 0.02 0.508
2:56 am 02:56 Cloudy 51 10.6 50 10 96 96 WSW 6 9 30.1 1019 10 16.0934 0 0.0254
3:56 am 03:56 Cloudy with Light Rain 49 9.4 49 9.4 100 100 WSW 6 9 30.09 1019 10 16.0934 0 0.0254
4:56 am 04:56 Cloudy with Light Rain 50 10 49 9.4 96 96 SSW 3 6 30.09 1019 10 16.0934 0 0.0254
5:56 am 05:56 Cloudy with Light Rain 50 10 50 10 100 100 WSW 7 11 30.09 1019 7 11.26538 0.04 1.016
6:56 am 06:56 Cloudy 51 10.6 50 10 96 96 SSW 9 15 30.09 1019 10 16.0934 0.01 0.254
7:56 am 07:56 Cloudy 50 10 50 10 100 100 SSW 6 9 30.09 1019 10 16.0934 0 0.0254
8:56 am 08:56 Cloudy 51 10.6 50 10 96 96 SSW 9 15 30.09 1019 9 14.48406 0 0
9:53 am 09:53 Cloudy with Light Rain 52 11 52 11 100 100 SW 9 15 30.09 1019 3 4.82802 0 0.0254
9:56 am 09:56 Cloudy with Light Rain 51 10.6 51 10.6 100 100 SW 9 15 30.09 1019 3 4.82802 0 0.0254
10:04 am 10:04 Cloudy with Light Rain 52 11 52 11 100 100 SW 9 15 30.1 1019 3 4.82802 0 0.0254
10:26 am 10:26 Cloudy 54 12 52 11 94 94 SSW 8 13 30.08 1019 8 12.87472 0 0.0254
10:56 am 10:56 Cloudy 54 12.2 52 11.1 93 93 SW 12 19 30.08 1019 10 16.0934 0 0.0254
11:45 am 11:45 Cloudy 54 12 52 11 94 94 SW 15 24 30.08 1019 10 16.0934 0 0
11:56 am 11:56 Cloudy 54 12.2 52 11.1 93 93 SW 14 22 30.08 1019 7 11.26538 0 0
12:56 pm 12:56 Cloudy 55 12.8 52 11.1 90 90 SW 9 15 30.08 1019 9 14.48406 0 0
1:56 pm 13:56 Cloudy 54 12.2 53 11.7 97 97 SW 12 19 30.08 1019 9 14.48406 0 0
2:29 pm 14:29 Cloudy 54 12 54 12 100 100 WSW 10 17 30.06 1018 7 11.26538 0 0
2:56 pm 14:56 Cloudy with Mist and Fog 54 12.2 53 11.7 97 97 SW 10 17 30.06 1018 6 9.65604 0 0
3:14 pm 15:14 Cloudy with Light Rain 54 12 54 12 100 100 SW 7 11 30.05 1018 2.5 4.02335 0 0.0254
3:56 pm 15:56 Cloudy with Light Rain 54 12.2 54 12.2 100 100 SSW 7 11 30.05 1018 2.5 4.02335 0 0.0254
4:06 pm 16:06 Cloudy with Light Rain 54 12 54 12 100 100 SSW 7 11 30.04 1017 3 4.82802 0 0.0254
4:56 pm 16:56 Cloudy with Mist and Fog 54 12.2 54 12.2 100 100 SSW 5 7 30.04 1017 4 6.43736 0 0.0254
5:56 pm 17:56 Cloudy with Mist and Fog 54 12.2 54 12.2 100 100 S 5 7 30.02 1017 4 6.43736 0 0
6:24 pm 18:24 Cloudy with Mist and Fog 55 13 54 12 94 94 S 7 11 30.01 1016 4 6.43736 0 0
6:36 pm 18:36 Cloudy with Mist and Fog 55 13 54 12 94 94 S 7 11 30.01 1016 5 8.0467 0 0
6:56 pm 18:56 Cloudy with Mist and Fog 54 12.2 54 12.2 100 100 S 7 11 30.02 1017 4 6.43736 0 0
7:23 pm 19:23 Cloudy with Mist and Fog 54 12 54 12 100 100 S 3 6 30.02 1017 3 4.82802 0 0
7:56 pm 19:56 Cloudy with Mist and Fog 54 12.2 53 11.7 97 97 S 3 6 30.03 1017 3 4.82802 0 0
8:39 pm 20:39 Cloudy with Light Rain 54 12 54 12 100 100 S 5 7 30.02 1017 4 6.43736 0 0.0254
8:56 pm 20:56 Cloudy with Mist and Fog 54 12.2 53 11.7 97 97 S 3 6 30.04 1017 5 8.0467 0 0.0254
9:40 pm 21:40 Cloudy with Light Rain 54 12 54 12 100 100 S 7 11 30.03 1017 4 6.43736 0 0.0254
9:49 pm 21:49 Cloudy with Light Rain 54 12 54 12 100 100 S 6 9 30.03 1017 4 6.43736 0.01 0.254
9:56 pm 21:56 Cloudy with Light Rain 53 11.7 53 11.7 100 100 S 6 9 30.04 1017 4 6.43736 0.01 0.254
10:13 pm 22:13 Cloudy with Light Rain 54 12 54 12 100 100 S 6 9 30.02 1017 4 6.43736 0 0.0254
10:56 pm 22:56 Cloudy with Mist and Fog 53 11.7 53 11.7 100 100 SSE 8 13 30 1016 6 9.65604 0 0.0254
11:56 pm 23:56 Cloudy 53 11.7 52 11.1 96 96 S 9 15 29.97 1015 10 16.0934 0 0

Powered by AerisWeather